Voltar ao catálogo

STARLINK DEPLOYMENT RAIL

AtivoSSO
NORAD 47437·DEBRIS·🇺🇸 United States
Este nome de satélite ainda não foi confirmado por fontes oficiais.

Lançado Jan 24, 2021 de Cape Canaveral Space Force Station

Loading…

Próximas Passagens (próximas 24 horas)

TLE

AtualizadoSource: Space-Track

Época: Sep 14, 2026, 20:31 UTC

1 47437U 21006AA  26257.85538804  .00003844  00000-0  12796-3 0  9994
2 47437  97.2159 296.4631 0007013 235.8714 124.1864 15.31703604313049

Acompanhe STARLINK DEPLOYMENT RAIL em tempo real com AllMySat

Download on the App Store